| time (UTC) | temp F | wind direction | speed MPH | gust MPH | rain 1hr in | rain 24hr in | rain mn in | humidity % | barometer mb |
| 20260507071048 | 46 | 225 | 0.0 | 0.0 | 0.00 | 0.00 | 0.00 | 100 | 999.6 |
| 20260507070534 | 45 | 225 | 0.0 | 0.0 | 0.00 | 0.00 | 0.00 | 100 | 999.5 |
| 20260507065532 | 44 | 225 | 0.0 | 0.0 | 0.00 | 0.00 | 0.00 | 100 | 999.3 |
| 20260507065034 | 43 | 225 | 0.0 | 0.0 | 0.00 | 0.00 | 0.00 | 100 | 999.2 |
| 20260507064524 | 43 | 225 | 0.0 | 0.0 | 0.00 | 0.00 | 0.00 | 100 | 999.3 |
| 20260507064024 | 42 | 225 | 0.0 | 0.0 | 0.00 | 0.00 | 0.00 | 100 | 999.2 |
| 20260507063530 | 41 | 225 | 0.0 | 0.0 | 0.00 | 0.00 | 0.00 | 100 | 999.2 |
| 20260507063041 | 41 | 225 | 0.0 | 0.0 | 0.00 | 0.00 | 0.00 | 100 | 999.2 |
| 20260507062504 | 41 | 225 | 0.0 | 0.0 | 0.00 | 0.00 | 0.00 | 100 | 999.3 |
| 20260507061458 | 41 | 225 | 0.0 | 0.0 | 0.00 | 0.00 | 0.00 | 100 | 999.1 |
| 20260507061007 | 40 | 225 | 0.0 | 0.0 | 0.00 | 0.00 | 0.00 | 100 | 999.1 |
| 20260507060455 | 41 | 225 | 1.0 | 1.0 | 0.00 | 0.00 | 0.00 | 100 | 999.1 |
| 20260507060007 | 41 | 225 | 0.0 | 0.0 | 0.00 | 0.00 | 0.00 | 100 | 999.0 |
| 20260507055449 | 41 | 225 | 0.0 | 1.0 | 0.00 | 0.00 | 0.00 | 100 | 999.0 |
| 20260507055018 | 41 | 225 | 0.0 | 3.0 | 0.00 | 0.00 | 0.00 | 100 | 998.9 |
| 20260507054449 | 41 | 225 | 0.0 | 1.0 | 0.00 | 0.00 | 0.00 | 100 | 998.8 |
| 20260507054000 | 41 | 225 | 0.0 | 0.0 | 0.00 | 0.00 | 0.00 | 100 | 998.7 |
| 20260507053448 | 41 | 225 | 0.0 | 1.0 | 0.00 | 0.00 | 0.00 | 100 | 998.8 |
| 20260507052946 | 41 | 225 | 0.0 | 1.0 | 0.00 | 0.00 | 0.00 | 100 | 998.9 |
| 20260507052429 | 40 | 225 | 0.0 | 2.0 | 0.00 | 0.00 | 0.00 | 100 | 998.9 |
| 20260507051941 | 40 | 225 | 0.0 | 2.0 | 0.00 | 0.00 | 0.00 | 100 | 999.0 |
| 20260507050945 | 40 | 225 | 1.0 | 1.0 | 0.00 | 0.00 | 0.00 | 100 | 999.2 |
| 20260507050416 | 40 | 225 | 0.0 | 0.0 | 0.00 | 0.00 | 0.00 | 100 | 999.2 |
| 20260507045928 | 40 | 225 | 0.0 | 0.0 | 0.00 | 0.00 | 0.00 | 100 | 999.3 |
| 20260507045403 | 40 | 225 | 0.0 | 1.0 | 0.00 | 0.00 | 0.00 | 100 | 999.4 |
| 20260507044954 | 40 | 225 | 0.0 | 1.0 | 0.00 | 0.00 | 0.00 | 100 | 999.4 |
| 20260507044415 | 40 | 225 | 1.0 | 2.0 | 0.00 | 0.00 | 0.00 | 100 | 999.5 |
| 20260507043916 | 40 | 225 | 0.0 | 0.0 | 0.00 | 0.00 | 0.00 | 100 | 999.4 |
| 20260507042411 | 40 | 225 | 0.0 | 1.0 | 0.00 | 0.00 | 0.00 | 100 | 999.5 |
| 20260507041909 | 40 | 225 | 0.0 | 2.0 | 0.00 | 0.00 | 0.00 | 100 | 999.5 |
| 20260507035330 | 41 | 225 | 1.0 | 1.0 | 0.00 | 0.00 | 0.00 | 100 | 999.8 |
| 20260507034859 | 41 | 225 | 1.0 | 2.0 | 0.00 | 0.00 | 0.00 | 100 | 999.9 |
| 20260507034320 | 41 | 225 | 1.0 | 1.0 | 0.00 | 0.00 | 0.00 | 100 | 999.9 |
| 20260507033323 | 41 | 225 | 1.0 | 2.0 | 0.00 | 0.00 | 0.00 | 100 | 999.8 |
| 20260507032853 | 41 | 225 | 1.0 | 1.0 | 0.00 | 0.00 | 0.00 | 100 | 999.9 |
| 20260507032312 | 41 | 225 | 0.0 | 2.0 | 0.00 | 0.00 | 0.00 | 100 | 999.9 |
| 20260507031853 | 42 | 225 | 0.0 | 1.0 | 0.00 | 0.00 | 0.00 | 100 | 999.8 |
| 20260507031259 | 42 | 225 | 0.0 | 2.0 | 0.00 | 0.00 | 0.00 | 100 | 999.9 |
| 20260507030813 | 42 | 225 | 0.0 | 2.0 | 0.00 | 0.00 | 0.00 | 100 | 1000.0 |
| 20260507030316 | 42 | 225 | 1.0 | 2.0 | 0.00 | 0.00 | 0.00 | 100 | 1000.1 |
| 20260507025800 | 42 | 225 | 0.0 | 2.0 | 0.00 | 0.00 | 0.00 | 100 | 1000.1 |
| 20260507025255 | 42 | 225 | 0.0 | 2.0 | 0.00 | 0.00 | 0.00 | 100 | 1000.1 |
| 20260507024827 | 42 | 225 | 1.0 | 3.0 | 0.00 | 0.00 | 0.00 | 100 | 1000.2 |
| 20260507023749 | 42 | 225 | 0.0 | 1.0 | 0.00 | 0.00 | 0.00 | 100 | 1000.3 |
| 20260507023249 | 42 | 225 | 0.0 | 2.0 | 0.00 | 0.00 | 0.00 | 100 | 1000.3 |
| 20260507022743 | 43 | 225 | 1.0 | 1.0 | 0.00 | 0.00 | 0.00 | 100 | 1000.3 |
| 20260507022243 | 42 | 225 | 0.0 | 1.0 | 0.00 | 0.00 | 0.00 | 100 | 1000.3 |
| 20260507021812 | 42 | 225 | 0.0 | 1.0 | 0.00 | 0.00 | 0.00 | 100 | 1000.4 |
| 20260507021222 | 43 | 225 | 0.0 | 2.0 | 0.00 | 0.00 | 0.00 | 100 | 1000.3 |
| 20260507020748 | 43 | 225 | 1.0 | 2.0 | 0.00 | 0.00 | 0.00 | 100 | 1000.4 |
| 20260507020237 | 43 | 225 | 0.0 | 1.0 | 0.00 | 0.00 | 0.00 | 100 | 1000.4 |
| 20260507015721 | 43 | 225 | 1.0 | 2.0 | 0.00 | 0.00 | 0.00 | 100 | 1000.6 |
| 20260507015217 | 44 | 225 | 0.0 | 2.0 | 0.00 | 0.00 | 0.00 | 100 | 1000.6 |
| 20260507014734 | 43 | 225 | 0.0 | 1.0 | 0.00 | 0.00 | 0.00 | 100 | 1000.6 |
| 20260507014214 | 44 | 225 | 1.0 | 3.0 | 0.00 | 0.00 | 0.00 | 100 | 1000.7 |
| 20260507013710 | 44 | 225 | 0.0 | 2.0 | 0.00 | 0.00 | 0.00 | 100 | 1000.8 |
| 20260507013216 | 44 | 225 | 0.0 | 2.0 | 0.00 | 0.00 | 0.00 | 100 | 1000.8 |
| 20260507012155 | 44 | 225 | 0.0 | 1.0 | 0.00 | 0.00 | 0.00 | 100 | 1001.0 |
| 20260507011738 | 45 | 225 | 0.0 | 2.0 | 0.00 | 0.00 | 0.00 | 100 | 1001.1 |
| 20260507011143 | 45 | 225 | 1.0 | 2.0 | 0.00 | 0.00 | 0.00 | 100 | 1001.2 |
| 20260507010703 | 45 | 225 | 0.0 | 2.0 | 0.00 | 0.00 | 0.00 | 100 | 1001.2 |
| 20260507010201 | 46 | 225 | 1.0 | 1.0 | 0.00 | 0.00 | 0.00 | 100 | 1001.2 |
| 20260507005655 | 46 | 225 | 1.0 | 1.0 | 0.00 | 0.00 | 0.00 | 100 | 1001.2 |
| 20260507000137 | 48 | 225 | 1.0 | 2.0 | 0.00 | 0.00 | 0.00 | 100 | 1001.7 |
| 20260506235611 | 48 | 225 | 0.0 | 2.0 | 0.00 | 0.00 | 0.00 | 100 | 1001.7 |
| 20260506234616 | 49 | 225 | 1.0 | 1.0 | 0.00 | 0.00 | 0.00 | 100 | 1001.5 |
| 20260506234103 | 49 | 225 | 0.0 | 1.0 | 0.00 | 0.00 | 0.00 | 100 | 1001.5 |
| 20260506233551 | 49 | 225 | 0.0 | 2.0 | 0.00 | 0.00 | 0.00 | 100 | 1001.5 |
| 20260506233056 | 49 | 225 | 0.0 | 1.0 | 0.00 | 0.00 | 0.00 | 100 | 1001.6 |
| 20260506232552 | 49 | 225 | 1.0 | 3.0 | 0.00 | 0.00 | 0.00 | 100 | 1001.5 |
| 20260506232047 | 50 | 225 | 0.0 | 1.0 | 0.00 | 0.00 | 0.00 | 100 | 1001.5 |
| 20260506231623 | 50 | 225 | 0.0 | 4.0 | 0.00 | 0.00 | 0.00 | 100 | 1001.6 |
| 20260506230611 | 50 | 225 | 0.0 | 1.0 | 0.00 | 0.00 | 0.00 | 100 | 1001.6 |
| 20260506230050 | 50 | 225 | 0.0 | 3.0 | 0.00 | 0.00 | 0.00 | 100 | 1001.6 |
| 20260506225532 | 50 | 225 | 0.0 | 2.0 | 0.00 | 0.00 | 0.00 | 100 | 1001.6 |
| 20260506225026 | 50 | 225 | 2.0 | 2.0 | 0.00 | 0.00 | 0.00 | 100 | 1001.7 |
| 20260506224558 | 50 | 225 | 0.0 | 1.0 | 0.00 | 0.00 | 0.00 | 100 | 1001.8 |
| 20260506224017 | 50 | 225 | 0.0 | 4.0 | 0.00 | 0.00 | 0.00 | 100 | 1001.7 |
| 20260506223527 | 50 | 225 | 0.0 | 4.0 | 0.00 | 0.00 | 0.00 | 100 | 1001.7 |
| 20260506223020 | 50 | 225 | 0.0 | 3.0 | 0.00 | 0.00 | 0.00 | 100 | 1001.8 |
| 20260506222521 | 51 | 225 | 1.0 | 5.0 | 0.00 | 0.00 | 0.00 | 100 | 1001.9 |
| 20260506222026 | 51 | 225 | 1.0 | 1.0 | 0.00 | 0.00 | 0.00 | 100 | 1001.9 |
| 20260506221519 | 51 | 225 | 1.0 | 3.0 | 0.00 | 0.00 | 0.00 | 100 | 1001.8 |
| 20260506221025 | 51 | 225 | 0.0 | 1.0 | 0.00 | 0.00 | 0.00 | 100 | 1001.9 |
| 20260506220512 | 51 | 225 | 0.0 | 1.0 | 0.00 | 0.00 | 0.00 | 100 | 1002.0 |
| 20260506220038 | 51 | 225 | 0.0 | 3.0 | 0.00 | 0.00 | 0.00 | 100 | 1001.9 |
| 20260506215505 | 51 | 225 | 2.0 | 3.0 | 0.00 | 0.00 | 0.00 | 100 | 1002.0 |
| 20260506213952 | 52 | 225 | 1.0 | 4.0 | 0.00 | 0.00 | 0.00 | 100 | 1002.0 |
| 20260506213447 | 52 | 225 | 3.0 | 4.0 | 0.00 | 0.00 | 0.00 | 100 | 1002.0 |
| 20260506212958 | 52 | 225 | 2.0 | 3.0 | 0.00 | 0.00 | 0.00 | 100 | 1002.0 |
| 20260506212443 | 52 | 225 | 1.0 | 2.0 | 0.00 | 0.00 | 0.00 | 100 | 1002.0 |
| 20260506211937 | 52 | 225 | 0.0 | 4.0 | 0.00 | 0.00 | 0.00 | 100 | 1001.9 |
| 20260506211433 | 52 | 225 | 1.0 | 3.0 | 0.00 | 0.00 | 0.00 | 100 | 1002.0 |
| 20260506210929 | 53 | 225 | 3.0 | 6.0 | 0.00 | 0.00 | 0.00 | 100 | 1002.0 |
| 20260506210454 | 53 | 225 | 6.0 | 6.0 | 0.00 | 0.00 | 0.00 | 100 | 1001.9 |
| 20260506205943 | 53 | 225 | 1.0 | 4.0 | 0.00 | 0.00 | 0.00 | 100 | 1002.0 |
| 20260506205425 | 53 | 225 | 2.0 | 3.0 | 0.00 | 0.00 | 0.00 | 100 | 1001.9 |
| 20260506204918 | 53 | 225 | 2.0 | 4.0 | 0.00 | 0.00 | 0.00 | 100 | 1001.8 |
| 20260506204435 | 53 | 225 | 1.0 | 6.0 | 0.00 | 0.00 | 0.00 | 100 | 1001.7 |
| 20260506203400 | 54 | 225 | 2.0 | 5.0 | 0.00 | 0.00 | 0.00 | 100 | 1001.7 |
| 20260506202847 | 54 | 225 | 4.0 | 5.0 | 0.00 | 0.00 | 0.00 | 100 | 1001.7 |
| 20260506202356 | 54 | 225 | 4.0 | 4.0 | 0.00 | 0.00 | 0.00 | 100 | 1001.7 |
| 20260506201344 | 55 | 225 | 1.0 | 6.0 | 0.00 | 0.00 | 0.00 | 100 | 1001.5 |
| 20260506200846 | 55 | 225 | 2.0 | 5.0 | 0.00 | 0.00 | 0.00 | 100 | 1001.6 |
| 20260506200359 | 55 | 225 | 2.0 | 5.0 | 0.00 | 0.00 | 0.00 | 100 | 1001.5 |
| 20260506195836 | 55 | 225 | 3.0 | 6.0 | 0.00 | 0.00 | 0.00 | 100 | 1001.6 |
| 20260506194839 | 56 | 225 | 2.0 | 4.0 | 0.00 | 0.00 | 0.00 | 99 | 1001.4 |
| 20260506194334 | 56 | 225 | 2.0 | 4.0 | 0.00 | 0.00 | 0.00 | 96 | 1001.3 |
| 20260506193825 | 56 | 225 | 5.0 | 8.0 | 0.00 | 0.00 | 0.00 | 94 | 1001.4 |
| 20260506192811 | 57 | 225 | 3.0 | 6.0 | 0.00 | 0.00 | 0.00 | 89 | 1001.3 |
| 20260506191758 | 58 | 225 | 4.0 | 9.0 | 0.00 | 0.00 | 0.00 | 81 | 1001.2 |
| 20260506191311 | 58 | 225 | 3.0 | 6.0 | 0.00 | 0.00 | 0.00 | 76 | 1001.2 |
| 20260506190259 | 59 | 225 | 4.0 | 10.0 | 0.00 | 0.00 | 0.00 | 70 | 1001.2 |
| 20260506185313 | 60 | 225 | 2.0 | 8.0 | 0.00 | 0.00 | 0.00 | 66 | 1001.0 |
| 20260506184746 | 60 | 225 | 4.0 | 9.0 | 0.00 | 0.00 | 0.00 | 63 | 1000.9 |
| 20260506184302 | 61 | 225 | 7.0 | 8.0 | 0.00 | 0.00 | 0.00 | 62 | 1000.9 |
| 20260506183248 | 61 | 225 | 5.0 | 6.0 | 0.00 | 0.00 | 0.00 | 58 | 1000.9 |
| 20260506182729 | 61 | 225 | 3.0 | 11.0 | 0.00 | 0.00 | 0.00 | 56 | 1000.9 |
| 20260506182245 | 62 | 225 | 6.0 | 7.0 | 0.00 | 0.00 | 0.00 | 58 | 1001.0 |
| 20260506181726 | 62 | 225 | 6.0 | 10.0 | 0.00 | 0.00 | 0.00 | 56 | 1000.8 |
| 20260506181233 | 62 | 225 | 10.0 | 10.0 | 0.00 | 0.00 | 0.00 | 54 | 1000.9 |
| 20260506180728 | 62 | 225 | 3.0 | 11.0 | 0.00 | 0.00 | 0.00 | 55 | 1000.8 |
| 20260506180226 | 62 | 225 | 4.0 | 11.0 | 0.00 | 0.00 | 0.00 | 54 | 1000.9 |
| 20260506175710 | 63 | 225 | 4.0 | 10.0 | 0.00 | 0.00 | 0.00 | 54 | 1000.8 |
| 20260506175220 | 63 | 337 | 6.0 | 9.0 | 0.00 | 0.00 | 0.00 | 53 | 1000.9 |
| 20260506174709 | 63 | 225 | 6.0 | 9.0 | 0.00 | 0.00 | 0.00 | 53 | 1001.0 |
| 20260506174213 | 63 | 225 | 6.0 | 8.0 | 0.00 | 0.00 | 0.00 | 54 | 1001.0 |
| 20260506173727 | 63 | 225 | 5.0 | 10.0 | 0.00 | 0.00 | 0.00 | 52 | 1001.0 |
| 20260506173207 | 64 | 225 | 4.0 | 9.0 | 0.00 | 0.00 | 0.00 | 51 | 1001.1 |
| 20260506172201 | 64 | 225 | 6.0 | 10.0 | 0.00 | 0.00 | 0.00 | 51 | 1001.0 |
| 20260506171653 | 64 | 337 | 7.0 | 10.0 | 0.00 | 0.00 | 0.00 | 50 | 1001.1 |
| 20260506171154 | 64 | 337 | 7.0 | 10.0 | 0.00 | 0.00 | 0.00 | 48 | 1001.0 |
| 20260506165635 | 65 | 225 | 6.0 | 12.0 | 0.00 | 0.00 | 0.00 | 48 | 1001.0 |
| 20260506165151 | 65 | 225 | 7.0 | 8.0 | 0.00 | 0.00 | 0.00 | 49 | 1001.0 |
| 20260506164629 | 65 | 225 | 6.0 | 10.0 | 0.00 | 0.00 | 0.00 | 49 | 1001.0 |
| 20260506164145 | 65 | 225 | 6.0 | 10.0 | 0.00 | 0.00 | 0.00 | 48 | 1001.0 |
| 20260506163633 | 65 | 225 | 9.0 | 9.0 | 0.00 | 0.00 | 0.00 | 51 | 1001.0 |
| 20260506163129 | 65 | 225 | 3.0 | 8.0 | 0.00 | 0.00 | 0.00 | 48 | 1000.9 |
| 20260506162614 | 66 | 225 | 9.0 | 11.0 | 0.00 | 0.00 | 0.00 | 47 | 1001.0 |
| 20260506162146 | 66 | 225 | 11.0 | 11.0 | 0.00 | 0.00 | 0.00 | 47 | 1001.0 |
| 20260506161609 | 66 | 225 | 5.0 | 9.0 | 0.00 | 0.00 | 0.00 | 46 | 1001.0 |
| 20260506161116 | 67 | 225 | 3.0 | 10.0 | 0.00 | 0.00 | 0.00 | 47 | 1001.0 |
| 20260506160616 | 67 | 225 | 7.0 | 9.0 | 0.00 | 0.00 | 0.00 | 47 | 1001.0 |
| 20260506160104 | 66 | 225 | 4.0 | 8.0 | 0.00 | 0.00 | 0.00 | 49 | 1001.0 |
| 20260506155557 | 67 | 225 | 3.0 | 10.0 | 0.00 | 0.00 | 0.00 | 49 | 1001.0 |
| 20260506155100 | 67 | 225 | 9.0 | 10.0 | 0.00 | 0.00 | 0.00 | 49 | 1001.1 |
| 20260506154551 | 67 | 225 | 6.0 | 10.0 | 0.00 | 0.00 | 0.00 | 49 | 1001.1 |
| 20260506154054 | 67 | 225 | 9.0 | 11.0 | 0.00 | 0.00 | 0.00 | 48 | 1001.1 |
| 20260506153609 | 67 | 225 | 5.0 | 11.0 | 0.00 | 0.00 | 0.00 | 47 | 1001.0 |
| 20260506153050 | 67 | 225 | 4.0 | 7.0 | 0.00 | 0.00 | 0.00 | 45 | 1001.0 |
| 20260506152538 | 67 | 225 | 4.0 | 10.0 | 0.00 | 0.00 | 0.00 | 45 | 1001.0 |
| 20260506152049 | 67 | 225 | 5.0 | 9.0 | 0.00 | 0.00 | 0.00 | 44 | 1001.1 |
| 20260506151531 | 67 | 225 | 1.0 | 12.0 | 0.00 | 0.00 | 0.00 | 45 | 1001.2 |
| 20260506151046 | 67 | 225 | 8.0 | 15.0 | 0.00 | 0.00 | 0.00 | 44 | 1001.2 |
| 20260506150538 | 67 | 225 | 6.0 | 11.0 | 0.00 | 0.00 | 0.00 | 47 | 1001.4 |
| 20260506150031 | 67 | 225 | 8.0 | 17.0 | 0.00 | 0.00 | 0.00 | 44 | 1001.5 |
| 20260506145514 | 68 | 225 | 6.0 | 8.0 | 0.00 | 0.00 | 0.00 | 42 | 1001.5 |
| 20260506145046 | 68 | 225 | 5.0 | 7.0 | 0.00 | 0.00 | 0.00 | 41 | 1001.5 |
| 20260506144505 | 68 | 225 | 4.0 | 8.0 | 0.00 | 0.00 | 0.00 | 41 | 1001.7 |
| 20260506144032 | 68 | 225 | 4.0 | 7.0 | 0.00 | 0.00 | 0.00 | 42 | 1001.7 |
| 20260506143527 | 67 | 225 | 2.0 | 9.0 | 0.00 | 0.00 | 0.00 | 43 | 1001.8 |
| 20260506143027 | 67 | 225 | 4.0 | 10.0 | 0.00 | 0.00 | 0.00 | 44 | 1001.9 |
| 20260506142452 | 67 | 225 | 5.0 | 7.0 | 0.00 | 0.00 | 0.00 | 43 | 1001.9 |
| 20260506142021 | 67 | 225 | 5.0 | 6.0 | 0.00 | 0.00 | 0.00 | 39 | 1001.9 |
| 20260506141452 | 67 | 225 | 6.0 | 9.0 | 0.00 | 0.00 | 0.00 | 39 | 1002.1 |
| 20260506140509 | 67 | 225 | 4.0 | 5.0 | 0.00 | 0.00 | 0.00 | 42 | 1002.2 |
| 20260506135959 | 66 | 225 | 2.0 | 7.0 | 0.00 | 0.00 | 0.00 | 41 | 1002.3 |
| 20260506135440 | 65 | 225 | 4.0 | 6.0 | 0.00 | 0.00 | 0.00 | 45 | 1002.3 |
| 20260506135003 | 66 | 225 | 2.0 | 6.0 | 0.00 | 0.00 | 0.00 | 43 | 1002.3 |
| 20260506134427 | 67 | 225 | 5.0 | 9.0 | 0.00 | 0.00 | 0.00 | 43 | 1002.4 |
| 20260506133448 | 67 | 225 | 4.0 | 9.0 | 0.00 | 0.00 | 0.00 | 42 | 1002.6 |
| 20260506132427 | 66 | 225 | 6.0 | 6.0 | 0.00 | 0.00 | 0.00 | 45 | 1002.6 |
| 20260506131409 | 65 | 225 | 3.0 | 7.0 | 0.00 | 0.00 | 0.00 | 45 | 1002.8 |
| 20260506130914 | 64 | 225 | 1.0 | 7.0 | 0.00 | 0.00 | 0.00 | 47 | 1002.9 |
| 20260506130415 | 65 | 225 | 4.0 | 6.0 | 0.00 | 0.00 | 0.00 | 46 | 1002.9 |
| 20260506125927 | 66 | 225 | 5.0 | 10.0 | 0.00 | 0.00 | 0.00 | 47 | 1003.1 |
| 20260506125356 | 66 | 225 | 1.0 | 7.0 | 0.00 | 0.00 | 0.00 | 45 | 1002.9 |
| 20260506124925 | 66 | 225 | 1.0 | 6.0 | 0.00 | 0.00 | 0.00 | 43 | 1003.1 |
| 20260506124355 | 67 | 225 | 6.0 | 7.0 | 0.00 | 0.00 | 0.00 | 45 | 1003.2 |
| 20260506123907 | 67 | 225 | 2.0 | 8.0 | 0.00 | 0.00 | 0.00 | 45 | 1003.2 |
| 20260506123403 | 66 | 225 | 0.0 | 6.0 | 0.00 | 0.00 | 0.00 | 46 | 1003.1 |
| 20260506122857 | 65 | 225 | 1.0 | 7.0 | 0.00 | 0.00 | 0.00 | 46 | 1003.2 |
| 20260506122342 | 65 | 225 | 2.0 | 7.0 | 0.00 | 0.00 | 0.00 | 48 | 1003.4 |
| 20260506121902 | 65 | 225 | 5.0 | 7.0 | 0.00 | 0.00 | 0.00 | 48 | 1003.5 |
| 20260506121330 | 64 | 225 | 6.0 | 7.0 | 0.00 | 0.00 | 0.00 | 50 | 1003.6 |
| 20260506120904 | 64 | 225 | 2.0 | 5.0 | 0.00 | 0.00 | 0.00 | 52 | 1003.6 |
| 20260506120324 | 64 | 225 | 4.0 | 8.0 | 0.00 | 0.00 | 0.00 | 51 | 1003.6 |
| 20260506115832 | 64 | 225 | 1.0 | 7.0 | 0.00 | 0.00 | 0.00 | 53 | 1003.6 |
| 20260506115321 | 63 | 225 | 3.0 | 7.0 | 0.00 | 0.00 | 0.00 | 54 | 1003.6 |
| 20260506114840 | 62 | 225 | 1.0 | 3.0 | 0.00 | 0.00 | 0.00 | 58 | 1003.7 |
| 20260506114315 | 62 | 225 | 1.0 | 6.0 | 0.00 | 0.00 | 0.00 | 57 | 1003.8 |
| 20260506113827 | 63 | 225 | 6.0 | 12.0 | 0.00 | 0.00 | 0.00 | 55 | 1003.8 |
| 20260506113310 | 64 | 225 | 8.0 | 8.0 | 0.00 | 0.00 | 0.00 | 54 | 1003.9 |
| 20260506112820 | 64 | 225 | 4.0 | 5.0 | 0.00 | 0.00 | 0.00 | 54 | 1004.0 |
| 20260506112306 | 63 | 225 | 1.0 | 6.0 | 0.00 | 0.00 | 0.00 | 54 | 1004.0 |
| 20260506111819 | 63 | 337 | 1.0 | 8.0 | 0.00 | 0.00 | 0.00 | 55 | 1004.1 |
| 20260506111251 | 64 | 337 | 3.0 | 6.0 | 0.00 | 0.00 | 0.00 | 59 | 1004.1 |
| 20260506110801 | 63 | 337 | 7.0 | 7.0 | 0.00 | 0.00 | 0.00 | 60 | 1004.1 |
| 20260506110308 | 63 | 337 | 4.0 | 9.0 | 0.00 | 0.00 | 0.00 | 60 | 1004.1 |
| 20260506105759 | 63 | 337 | 5.0 | 7.0 | 0.00 | 0.00 | 0.00 | 61 | 1004.2 |
| 20260506105245 | 62 | 337 | 1.0 | 7.0 | 0.00 | 0.00 | 0.00 | 65 | 1004.2 |
| 20260506104232 | 62 | 337 | 6.0 | 7.0 | 0.00 | 0.00 | 0.00 | 64 | 1004.3 |
| 20260506103746 | 61 | 337 | 3.0 | 8.0 | 0.00 | 0.00 | 0.00 | 66 | 1004.2 |
| 20260506103225 | 61 | 337 | 5.0 | 5.0 | 0.00 | 0.00 | 0.00 | 69 | 1004.3 |
| 20260506102219 | 61 | 337 | 4.0 | 8.0 | 0.00 | 0.00 | 0.00 | 71 | 1004.3 |
| 20260506101754 | 61 | 337 | 4.0 | 8.0 | 0.00 | 0.00 | 0.00 | 70 | 1004.4 |
| 20260506101233 | 61 | 337 | 6.0 | 6.0 | 0.00 | 0.00 | 0.00 | 77 | 1004.5 |
| 20260506100213 | 60 | 337 | 2.0 | 4.0 | 0.00 | 0.00 | 0.00 | 81 | 1004.5 |
| 20260506095736 | 60 | 337 | 4.0 | 5.0 | 0.00 | 0.00 | 0.00 | 80 | 1004.4 |
| 20260506095206 | 59 | 337 | 3.0 | 12.0 | 0.00 | 0.00 | 0.00 | 84 | 1004.5 |
| 20260506094714 | 59 | 337 | 3.0 | 7.0 | 0.00 | 0.00 | 0.00 | 84 | 1004.5 |
| 20260506094219 | 59 | 337 | 3.0 | 7.0 | 0.00 | 0.00 | 0.00 | 86 | 1004.5 |
| 20260506093711 | 59 | 337 | 2.0 | 5.0 | 0.00 | 0.00 | 0.00 | 98 | 1004.5 |
| 20260506093150 | 59 | 337 | 2.0 | 6.0 | 0.00 | 0.00 | 0.00 | 100 | 1004.6 |
| 20260506092726 | 58 | 337 | 3.0 | 3.0 | 0.00 | 0.00 | 0.00 | 100 | 1004.7 |
| 20260506090129 | 56 | 337 | 5.0 | 5.0 | 0.00 | 0.00 | 0.00 | 100 | 1004.7 |
| 20260506085641 | 56 | 337 | 3.0 | 5.0 | 0.00 | 0.00 | 0.00 | 100 | 1004.7 |
| 20260506085130 | 56 | 337 | 6.0 | 6.0 | 0.00 | 0.00 | 0.00 | 100 | 1004.8 |
| 20260506084635 | 55 | 337 | 4.0 | 7.0 | 0.00 | 0.00 | 0.00 | 100 | 1004.7 |
| 20260506083628 | 54 | 337 | 1.0 | 4.0 | 0.00 | 0.00 | 0.00 | 100 | 1004.8 |
| 20260506083115 | 53 | 337 | 3.0 | 5.0 | 0.00 | 0.00 | 0.00 | 100 | 1004.8 |
| 20260506082622 | 53 | 337 | 1.0 | 6.0 | 0.00 | 0.00 | 0.00 | 100 | 1004.8 |
| 20260506080615 | 51 | 337 | 5.0 | 5.0 | 0.00 | 0.00 | 0.00 | 100 | 1004.0 |
| 20260506073037 | 45 | 337 | 1.0 | 2.0 | 0.00 | 0.00 | 0.00 | 100 | 1002.9 |
| 20260506072548 | 45 | 337 | 0.0 | 2.0 | 0.00 | 0.00 | 0.00 | 100 | 1002.9 |
| 20260506072031 | 44 | 337 | 0.0 | 1.0 | 0.00 | 0.00 | 0.00 | 100 | 1002.9 |
| 20260506071541 | 43 | 337 | 0.0 | 0.0 | 0.00 | 0.00 | 0.00 | 100 | 1002.9 |